Date,TemperatureHighF,TemperatureAvgF,TemperatureLowF,DewpointHighF,DewpointAvgF,DewpointLowF,HumidityHigh,HumidityAvg,HumidityLow,PressureMaxIn,PressureMinIn,WindSpeedMaxMPH,WindSpeedAvgMPH,GustSpeedMaxMPH,PrecipitationSumIn
2013-1-1,29,15,0,26,1,-100,95,80,84,30.43,30.34,16,-111,21,0.00
2013-1-2,27,18,4,23,2,-100,90,74,80,30.62,30.40,18,-124,24,0.00
2013-1-3,14,4,-3,9,-11,-100,90,74,76,30.59,30.41,7,-118,10,0.00
2013-1-4,24,8,-3,20,-4,-100,94,77,76,30.48,30.33,18,-86,24,0.00
2013-1-5,24,12,3,17,-2,-100,91,75,74,30.55,30.42,12,-104,21,0.00
2013-1-6,31,16,5,24,-1,-100,92,73,69,30.45,30.08,10,-133,14,0.02
2013-1-7,34,17,9,32,2,-100,93,74,72,30.18,29.84,9,-115,17,0.00
2013-1-8,36,26,12,33,11,-100,93,74,73,30.26,29.80,17,-110,21,0.01
2013-1-9,41,25,6,32,8,-100,89,71,69,30.28,29.89,10,-124,14,0.00
2013-1-10,128,26,16,33,21,13,92,85,81,30.03,29.77,13,-11,19,0.00
2013-1-11,16,8,3,13,-9,-100,89,71,2,30.51,30.01,20,-143,31,12.40
2013-1-12,4,-3,-13,-3,-22,-100,85,67,74,30.61,30.51,12,-144,17,0.00
2013-1-13,8,0,-14,2,-13,-100,87,75,76,30.68,30.59,7,-96,11,0.00
2013-1-14,11,4,-10,8,-13,-100,88,74,82,30.61,30.31,8,-134,9,0.00
2013-1-15,38,28,11,33,13,-100,96,76,79,30.31,30.09,23,-98,30,0.01
2013-1-16,39,34,34,34,22,-100,89,77,78,30.46,30.07,11,-68,19,0.00
2013-1-17,41,30,27,32,16,-100,95,77,68,30.52,30.08,9,-100,11,0.00
2013-1-18,40,31,24,31,15,-100,88,71,69,30.11,29.99,11,-100,14,0.00
2013-1-19,34,17,12,30,-4,-100,89,69,71,30.60,30.12,11,-164,16,0.00
2013-1-20,16,1,-10,13,-16,-100,90,66,61,31.00,30.60,11,-113,19,0.00
2013-1-21,8,3,-3,2,-14,-100,85,66,57,30.88,30.55,11,-105,15,0.00
2013-1-22,17,10,4,12,-5,-100,87,74,78,30.59,30.46,10,-108,11,0.00
2013-1-23,11,7,5,6,-8,-100,85,71,73,30.76,30.42,22,-100,26,0.00
2013-1-24,30,17,9,24,1,-100,91,73,76,30.43,30.18,21,-121,28,0.00
2013-1-25,19,14,8,15,2,-100,91,80,84,30.38,30.22,13,-84,21,0.00
2013-1-26,36,22,14,30,7,-100,93,76,71,30.21,30.01,10,-112,14,0.00
2013-1-27,34,26,22,32,18,-100,97,85,87,30.05,29.98,7,-68,14,0.02
2013-1-28,35,20,10,26,7,-100,93,77,67,30.06,29.97,4,-97,6,0.01
2013-1-29,18,5,-6,16,-6,-100,93,77,72,30.64,29.97,23,-67,31,0.00
2013-1-30,5,-1,-9,1,-13,-100,84,71,72,30.67,30.37,17,-54,21,0.00
2013-1-31,4,-6,-19,0,-20,-100,83,69,65,30.83,30.45,12,-74,15,0.00
2013-2-1,33,16,5,31,1,-100,96,77,82,30.44,30.36,11,-127,13,0.00
2013-2-2,36,28,24,30,15,-100,93,77,76,30.46,30.27,24,-91,31,0.01
2013-2-3,30,18,10,23,6,-100,93,81,75,30.26,30.08,8,-91,10,0.00
2013-2-4,41,26,11,33,14,-100,94,78,72,30.21,29.94,11,-85,15,0.00
2013-2-5,33,26,18,29,20,-100,93,84,80,30.20,29.91,12,-32,15,0.00
2013-2-6,41,26,16,32,16,-100,96,81,68,30.26,29.91,9,-61,14,0.00
2013-2-7,28,20,15,26,12,-100,95,87,92,30.35,30.22,13,-73,20,0.00
2013-2-8,31,19,9,26,12,-100,94,86,83,30.27,30.21,7,-41,10,0.00
2013-2-9,32,17,5,27,6,-100,94,82,80,30.25,30.12,8,-84,10,0.00
2013-2-10,30,22,19,27,13,-100,93,81,77,30.42,30.17,22,-45,25,0.00
2013-2-11,31,19,7,21,10,-100,90,78,63,30.43,30.17,6,-42,9,0.00
2013-2-12,38,25,13,29,15,-100,91,79,67,30.27,30.00,7,-51,11,0.00
2013-2-13,41,31,22,33,19,-100,93,75,70,30.17,29.91,21,-65,34,0.00
2013-2-14,31,22,11,27,10,-100,93,77,72,30.62,30.17,22,-68,33,0.00
2013-2-15,34,23,12,27,12,-100,91,78,67,30.67,30.26,6,-57,10,0.00
2013-2-16,46,33,25,34,25,-100,92,80,62,30.28,29.85,8,-29,14,0.00
2013-2-17,36,29,22,33,20,-100,94,82,80,30.21,29.74,20,-47,29,0.00
2013-2-18,22,16,5,18,3,-100,87,73,69,30.59,30.22,18,-73,21,0.00
2013-2-19,11,5,-3,4,-4,-100,86,75,72,30.60,30.38,24,-29,33,0.00
2013-2-20,18,11,5,10,2,-100,84,74,67,30.39,30.32,19,-29,24,0.00
2013-2-21,24,14,4,16,7,-100,90,79,69,30.41,30.25,11,-18,15,0.00
2013-2-22,40,24,10,28,17,-100,91,79,57,30.24,29.88,7,-19,11,0.00
2013-2-23,42,31,24,32,19,-100,88,74,64,30.11,29.80,8,-44,16,0.00
2013-2-24,44,30,21,28,19,-100,90,72,48,30.34,30.12,10,-43,16,0.00
2013-2-25,49,34,20,31,24,-100,89,71,39,30.17,29.97,8,-9,10,0.00
2013-2-26,34,30,27,29,24,-100,91,83,77,30.45,30.03,18,-14,22,0.00
2013-2-27,32,27,23,25,20,-100,91,82,76,30.56,30.46,10,-27,14,0.00
2013-2-28,40,28,21,29,24,20,94,85,64,30.52,30.42,8,3,12,0.00
2013-3-1,52,32,20,34,23,-100,92,76,47,30.53,30.29,11,-31,13,0.00
2013-3-2,53,38,28,39,33,27,94,83,55,30.31,30.04,9,2,13,0.00
2013-3-3,39,32,28,37,24,-100,96,88,80,30.03,29.77,17,-48,23,0.15
2013-3-4,27,18,6,25,10,-100,93,81,74,30.73,29.92,22,-34,31,0.00
2013-3-5,19,10,-1,14,6,-4,89,85,78,30.80,30.61,13,5,18,0.00
2013-3-6,27,18,8,23,14,5,90,87,81,30.61,30.18,18,11,26,0.00
2013-3-7,34,23,12,28,17,-100,93,84,73,30.47,30.15,14,-17,22,0.02
2013-3-8,24,18,9,22,14,7,92,87,81,30.48,30.27,14,5,19,0.00
2013-3-9,34,24,14,25,20,11,95,86,67,30.56,30.24,12,5,18,0.00
2013-3-10,33,20,7,28,16,4,91,87,79,30.57,30.18,12,4,15,0.00
2013-3-11,36,28,21,28,22,15,94,79,58,30.55,30.15,34,13,39,0.01
2013-3-12,36,24,11,25,17,8,90,76,53,30.65,30.36,16,6,18,0.00
2013-3-13,61,41,28,42,33,25,90,75,47,30.34,30.11,11,4,18,0.00
2013-3-14,55,37,28,42,33,25,95,84,53,30.32,30.20,18,4,25,0.00
2013-3-15,34,27,20,29,22,-100,96,85,73,30.47,30.12,16,-16,25,0.00
2013-3-16,20,16,14,15,12,10,88,82,77,30.48,30.18,18,8,24,0.00
2013-3-17,28,18,5,27,15,-1,94,86,75,30.27,29.77,32,14,36,0.02
2013-3-18,22,10,-7,14,4,-10,85,78,64,30.38,30.23,12,4,20,0.00
2013-3-19,24,10,-3,11,3,-7,89,76,54,30.75,30.33,6,3,8,0.00
2013-3-20,40,20,2,28,13,-1,86,77,60,30.68,30.01,24,13,30,0.01
2013-3-21,32,27,25,27,22,18,93,83,68,30.16,29.94,20,10,28,0.00
2013-3-22,25,21,18,23,18,13,94,85,75,30.45,30.14,23,10,23,0.00
2013-3-23,20,17,9,15,12,6,89,82,74,30.65,30.46,18,9,21,0.00
2013-3-24,23,12,3,13,7,-1,88,80,63,30.74,30.65,10,4,14,0.00
2013-3-25,23,10,-6,18,6,-10,88,84,80,30.75,30.50,20,7,22,0.00
2013-3-26,31,19,6,24,14,4,89,82,72,30.50,30.37,12,5,15,0.00
2013-3-27,34,20,8,28,17,5,91,86,75,30.43,30.39,13,6,16,0.00
2013-3-28,39,25,14,34,22,12,92,88,80,30.46,30.38,11,6,16,0.00
2013-3-29,58,38,26,44,33,24,93,84,55,30.40,30.22,10,3,13,0.00
2013-3-30,50,37,27,40,31,24,96,80,48,30.36,30.29,21,4,24,0.01
2013-3-31,34,30,24,28,25,21,91,80,67,30.50,30.28,13,5,18,0.00
2013-4-1,44,31,22,33,26,19,91,83,64,30.52,30.43,11,6,15,0.00
2013-4-2,54,36,24,40,31,22,93,82,58,30.44,30.09,19,8,24,0.00
2013-4-3,52,45,34,38,30,23,84,58,39,30.39,30.01,16,5,25,0.00
2013-4-4,45,36,31,31,28,27,87,75,57,30.45,30.16,23,9,26,0.00
2013-4-5,64,46,33,49,36,29,90,71,39,30.14,29.77,20,8,25,0.01
2013-4-6,48,42,34,43,37,32,95,83,68,30.00,29.86,14,4,15,0.00
2013-4-7,56,40,28,40,32,24,97,77,38,30.08,29.81,18,8,27,0.04
2013-4-8,28,24,17,23,15,10,87,70,48,30.74,30.08,21,10,30,0.00
2013-4-9,39,25,13,20,14,9,88,67,39,30.84,30.69,10,2,13,0.00
2013-4-10,47,33,17,25,20,14,91,62,35,30.69,30.10,16,6,24,0.00
2013-4-11,45,36,29,36,30,21,95,79,58,30.12,30.00,16,5,19,0.08
2013-4-12,49,37,28,33,28,21,96,75,33,30.22,30.07,16,5,21,0.00
2013-4-13,49,37,27,35,29,25,96,75,40,30.06,29.69,29,16,34,0.00
2013-4-14,32,28,24,31,26,23,96,93,90,30.25,29.82,17,3,25,0.00
2013-4-15,32,29,26,28,26,23,93,87,74,30.41,30.22,16,7,18,0.01
2013-4-16,32,28,23,27,25,20,93,86,75,30.63,30.39,11,5,14,0.02
2013-4-17,33,27,21,27,22,16,93,81,51,30.64,30.57,12,4,15,0.01
2013-4-18,45,31,14,33,23,12,92,75,45,30.56,30.28,10,2,12,0.01
2013-4-19,43,36,26,32,29,24,94,78,58,30.27,30.12,16,7,22,0.00
2013-4-20,58,42,31,43,36,28,95,80,51,30.12,29.96,15,6,20,0.03
2013-4-21,41,35,27,37,24,16,89,66,38,30.57,30.09,18,10,25,0.00
2013-4-22,41,30,17,22,16,13,90,60,34,30.74,30.58,11,4,18,0.00
2013-4-23,51,37,22,32,23,16,90,63,26,30.60,30.23,15,4,23,0.00
2013-4-24,51,38,30,32,27,20,95,68,34,30.35,30.12,21,9,27,0.02
2013-4-25,66,49,30,33,28,22,85,50,19,30.12,29.92,18,6,27,0.00
2013-4-26,75,55,30,36,30,26,88,48,17,30.17,30.02,15,4,20,0.00
2013-4-27,77,62,40,39,33,28,76,39,17,30.03,29.76,19,7,30,0.00
2013-4-28,66,57,48,36,29,23,63,37,21,30.05,29.80,13,5,20,0.00
2013-4-29,66,54,42,37,32,24,68,44,23,29.79,29.49,23,9,35,0.00
2013-4-30,43,36,26,35,26,18,91,69,37,30.49,29.66,25,13,30,0.01
2013-5-1,50,36,18,24,16,6,89,51,18,30.85,30.50,15,4,20,0.00
2013-5-2,64,46,25,26,20,12,72,40,14,30.84,30.48,11,4,15,0.00
2013-5-3,69,53,34,29,24,20,59,35,17,30.48,30.25,13,6,18,0.00
2013-5-4,66,54,42,28,25,21,53,34,18,30.44,30.34,16,7,23,0.00
2013-5-5,70,54,33,32,27,25,75,40,19,30.42,30.21,12,3,19,0.00
2013-5-6,76,58,37,35,29,23,73,39,15,30.23,30.02,11,4,18,0.00
2013-5-7,82,64,41,41,31,24,62,34,13,30.05,29.91,31,7,33,0.00
2013-5-8,66,56,48,39,34,27,68,45,28,30.33,30.06,18,11,27,0.00
2013-5-9,68,55,44,31,27,24,51,35,19,30.39,30.23,18,8,23,0.00
2013-5-10,63,52,39,42,28,22,74,42,21,30.55,30.20,21,7,29,0.00
2013-5-11,68,50,27,27,24,19,73,40,20,30.63,30.27,14,6,17,0.00
2013-5-12,85,64,38,48,34,20,54,35,20,30.29,29.84,13,5,18,0.00
2013-5-13,91,72,52,58,46,38,86,46,16,29.93,29.57,25,7,35,0.11
2013-5-14,73,63,53,57,40,31,89,46,22,29.99,29.68,31,12,43,0.03
2013-5-15,74,61,45,42,33,25,73,41,16,30.09,29.98,14,4,23,0.00
2013-5-16,76,60,50,55,44,36,87,61,27,29.98,29.90,9,3,16,0.31
2013-5-17,72,61,52,54,52,49,93,74,46,29.99,29.90,10,4,14,0.00
2013-5-18,70,62,55,57,54,53,93,76,57,29.98,29.92,16,4,22,0.03
2013-5-19,67,60,54,55,51,42,91,74,43,30.10,29.96,21,8,27,0.01
2013-5-20,69,58,52,50,44,39,91,63,34,30.17,30.07,21,6,34,0.02
2013-5-21,69,58,45,40,35,27,72,45,23,30.21,30.09,19,8,29,0.00
2013-5-22,73,61,51,46,36,25,77,46,19,30.23,30.14,28,12,38,0.00
2013-5-23,72,61,47,46,41,36,80,51,30,30.25,29.99,38,18,45,0.00
2013-5-24,71,61,52,49,43,33,82,54,25,30.06,29.86,22,8,27,0.00
2013-5-25,79,60,44,59,48,-100,88,69,40,30.09,29.89,20,9,34,0.20
2013-5-26,77,64,49,59,54,47,96,73,45,30.05,29.88,22,4,34,0.63
2013-5-27,72,62,56,57,55,49,96,79,52,29.94,29.75,13,3,22,0.05
2013-5-28,70,59,50,55,52,49,97,79,50,29.81,29.75,9,2,13,0.00
2013-5-29,64,58,47,60,54,46,96,85,74,29.82,29.70,15,3,21,0.13
2013-5-30,58,55,53,54,52,50,94,89,81,29.74,29.69,18,10,25,1.21
2013-5-31,64,54,48,52,47,42,94,79,47,30.25,29.71,18,8,27,0.41
2013-6-1,71,58,44,53,47,42,93,69,43,30.34,30.20,7,1,8,0.00
2013-6-2,71,59,47,51,47,43,89,66,38,30.21,29.93,16,7,22,0.00
2013-6-3,58,49,46,48,46,44,95,90,66,30.13,29.81,29,16,38,0.52
2013-6-4,60,53,45,47,43,38,92,72,46,30.37,30.13,18,7,28,0.00
2013-6-5,68,58,48,48,46,43,93,67,40,30.36,30.18,10,2,13,0.00
2013-6-6,76,62,46,52,46,38,91,62,28,30.18,30.09,13,3,17,0.00
2013-6-7,75,60,47,59,52,44,94,77,42,30.09,29.74,13,4,19,0.26
2013-6-8,70,62,52,57,53,48,97,76,47,29.97,29.73,32,9,33,0.22
2013-6-9,82,66,50,54,50,43,94,62,26,30.02,29.75,22,4,27,0.00
2013-6-10,78,65,50,54,49,43,94,62,29,29.98,29.85,8,2,11,0.00
2013-6-11,74,62,54,56,52,49,91,71,49,30.10,29.94,25,7,30,0.14
2013-6-12,75,68,56,59,57,54,95,69,54,30.18,30.09,12,6,16,0.04
2013-6-13,78,67,58,63,58,54,87,72,55,30.12,29.85,15,8,22,0.01
2013-6-14,70,62,52,58,50,-100,94,70,42,30.00,29.79,26,9,32,0.35
2013-6-15,75,64,52,49,46,43,85,55,33,30.04,29.97,18,7,27,0.00
2013-6-16,73,62,49,52,49,46,90,66,41,30.21,30.02,21,8,31,0.00
2013-6-17,77,62,47,56,51,46,96,70,39,30.26,30.13,6,2,17,0.00
2013-6-18,83,69,52,63,57,50,93,68,44,30.16,29.84,15,7,23,0.00
2013-6-19,88,75,61,66,60,58,89,64,36,29.85,29.59,23,12,32,0.00
2013-6-20,79,67,54,61,53,42,91,66,27,30.05,29.62,19,4,35,0.28
2013-6-21,75,62,53,56,51,45,90,69,35,30.14,30.03,15,3,19,0.02
2013-6-22,73,61,47,57,52,46,97,76,48,30.10,29.95,6,2,10,0.00
2013-6-23,78,67,57,56,52,47,90,63,34,29.94,29.80,13,4,19,0.00
2013-6-24,86,71,52,67,59,49,90,68,40,29.81,29.61,17,6,27,0.00
2013-6-25,80,70,60,67,60,56,95,71,45,29.81,29.61,16,5,35,0.56
2013-6-26,80,69,57,60,54,49,94,63,36,30.05,29.81,24,5,28,0.00
2013-6-27,81,69,54,56,51,47,87,58,31,30.22,30.05,21,6,26,0.00
2013-6-28,85,71,56,59,55,52,91,60,32,30.27,30.20,12,4,18,0.00
2013-6-29,84,70,53,60,54,50,90,62,32,30.26,30.17,13,3,17,0.00
2013-6-30,83,70,55,61,58,53,93,68,42,30.24,30.19,10,5,17,0.00
2013-7-1,88,74,61,64,60,57,88,65,37,30.28,30.15,10,4,11,0.00
2013-7-2,91,76,59,65,59,56,91,61,32,30.19,29.97,12,5,14,0.00
2013-7-3,98,79,62,70,62,56,81,58,29,29.97,29.73,18,6,22,0.00
2013-7-4,88,76,63,66,60,54,91,59,34,29.92,29.78,9,3,13,0.00
2013-7-5,88,75,64,67,62,57,90,66,44,29.82,29.71,16,5,22,0.00
2013-7-6,77,68,61,62,56,52,92,68,42,30.01,29.75,19,7,31,0.03
2013-7-7,83,71,56,63,58,53,92,65,40,30.05,29.93,14,4,16,0.00
2013-7-8,82,68,57,67,61,55,93,79,52,30.09,29.90,16,5,26,0.35
2013-7-9,76,65,56,59,56,51,96,74,42,30.23,30.04,11,4,17,0.01
2013-7-10,88,72,55,62,58,53,93,64,33,30.21,29.91,10,4,17,0.00
2013-7-11,97,78,61,68,61,53,94,61,31,29.90,29.64,14,6,18,0.00
2013-7-12,90,78,63,61,50,36,81,43,15,29.95,29.72,11,4,17,0.00
2013-7-13,87,72,56,64,58,50,91,62,37,30.28,29.90,24,7,31,0.02
2013-7-14,72,61,48,56,52,46,94,75,53,30.39,30.21,17,5,21,0.00
2013-7-15,96,74,56,70,60,53,95,68,23,30.24,29.85,20,6,30,0.00
2013-7-16,78,67,55,59,53,48,85,63,41,30.31,29.98,19,6,24,0.05
2013-7-17,71,64,58,64,59,54,89,83,73,30.32,30.11,14,5,22,0.01
2013-7-18,89,73,56,65,55,44,96,61,22,30.12,29.99,23,6,35,0.00
2013-7-19,92,73,53,59,53,43,93,58,19,30.11,29.93,16,4,23,0.01
2013-7-20,84,69,57,62,58,54,90,71,37,30.05,29.90,23,5,30,0.00
2013-7-21,88,73,60,64,58,52,93,62,32,29.93,29.74,18,7,24,0.00
2013-7-22,79,67,54,57,54,51,91,66,41,30.08,29.93,16,6,24,0.00
2013-7-23,82,68,55,60,57,53,93,69,38,30.16,30.04,12,4,21,0.00
2013-7-24,88,69,55,62,58,53,93,71,35,30.19,30.00,17,-8,35,0.44
2013-7-25,71,64,54,58,51,43,92,64,37,30.38,30.12,14,4,16,0.00
2013-7-26,72,58,47,52,48,45,96,73,41,30.46,30.30,14,6,21,0.00
2013-7-27,80,66,50,52,48,45,82,56,35,30.33,29.98,18,10,26,0.00
2013-7-28,80,66,54,59,51,43,81,58,44,30.04,29.90,27,7,27,0.00
2013-7-29,78,65,56,58,54,49,92,69,37,30.14,29.93,13,4,15,0.00
2013-7-30,76,65,54,60,54,47,96,70,38,30.28,30.14,13,3,15,0.38
2013-7-31,82,66,49,53,49,45,93,60,29,30.32,30.16,11,3,18,0.00
2013-8-1,80,68,53,57,52,47,80,57,36,30.20,30.02,12,5,18,0.00
2013-8-2,72,65,59,60,55,52,88,71,50,30.21,30.03,14,6,19,0.02
2013-8-3,80,66,57,63,59,54,93,78,53,30.25,30.10,14,8,27,0.96
2013-8-4,81,68,58,62,59,56,95,77,46,30.14,30.03,7,2,12,0.00
2013-8-5,89,68,53,64,57,52,95,72,34,30.08,29.80,17,3,21,0.00
2013-8-6,82,65,56,59,56,52,94,74,36,30.12,29.91,24,6,34,0.14
2013-8-7,70,60,52,56,51,46,97,74,45,30.20,30.13,15,5,19,0.01
2013-8-8,75,62,46,54,49,45,94,66,39,30.29,30.18,11,4,17,0.00
2013-8-9,75,64,52,53,50,48,87,64,44,30.33,30.23,14,5,15,0.00
2013-8-10,82,66,57,63,56,51,87,73,46,30.26,30.09,23,7,30,0.55
2013-8-11,80,65,53,61,57,51,97,77,48,30.24,30.12,13,6,18,0.00
2013-8-12,82,69,57,61,56,53,90,65,41,30.20,30.12,17,7,21,0.00
2013-8-13,83,70,61,63,57,51,87,65,46,30.22,30.10,16,6,18,0.00
2013-8-14,74,65,60,65,61,59,95,88,65,30.13,30.07,11,3,15,0.83
2013-8-15,86,70,53,64,58,52,98,72,37,30.14,30.02,8,2,11,0.01
2013-8-16,99,78,59,67,57,45,89,57,16,30.03,29.86,9,4,14,0.00
2013-8-17,92,77,62,64,57,47,90,56,21,29.93,29.87,13,3,16,0.00
2013-8-18,89,73,59,61,56,51,87,61,27,30.08,29.90,12,3,23,0.05
2013-8-19,92,75,58,60,53,44,88,53,20,29.93,29.80,13,4,19,0.00
2013-8-20,87,74,57,55,50,46,81,48,25,29.94,29.79,16,6,21,0.00
2013-8-21,80,68,57,56,49,43,88,54,33,30.23,29.94,25,8,27,0.00
2013-8-22,87,71,50,60,53,44,80,55,35,30.27,29.97,18,6,19,0.00
2013-8-23,94,76,60,67,62,57,89,63,33,29.97,29.70,9,3,14,0.00
2013-8-24,91,77,63,63,56,50,78,50,26,29.90,29.71,13,3,22,0.01
2013-8-25,96,76,57,65,55,51,81,53,23,29.99,29.89,13,4,16,0.00
2013-8-26,95,78,64,64,58,52,81,54,23,29.92,29.85,12,2,16,0.00
2013-8-27,90,76,64,58,55,53,77,51,30,30.04,29.88,10,3,18,0.00
2013-8-28,96,76,61,68,61,53,93,63,25,29.99,29.85,14,5,26,0.22
2013-8-29,91,75,61,67,63,59,97,71,34,30.04,29.94,9,2,13,0.00
2013-8-30,94,75,59,63,57,44,93,59,18,30.02,29.86,11,2,13,0.00
2013-8-31,80,68,57,53,50,43,83,55,29,30.14,29.91,23,9,33,0.00
2013-9-1,80,64,50,60,54,48,97,73,43,30.23,30.06,10,3,17,0.00
2013-9-2,95,72,54,61,55,49,94,61,21,30.07,29.90,8,4,16,0.00
2013-9-3,94,78,63,63,58,54,77,52,29,30.04,29.93,18,4,26,0.00
2013-9-4,78,71,62,67,62,56,88,75,56,30.14,30.04,15,7,22,0.02
2013-9-5,95,78,63,68,63,59,90,62,35,30.09,29.90,7,3,15,0.00
2013-9-6,94,80,69,68,65,60,90,63,34,30.02,29.87,11,4,21,0.25
2013-9-7,76,67,63,66,61,58,89,81,68,30.16,29.99,22,10,31,0.02
2013-9-8,71,65,59,62,60,57,96,85,71,30.13,29.85,8,3,15,0.17
2013-9-9,72,65,56,61,59,54,97,82,58,30.02,29.84,15,4,20,0.02
2013-9-10,83,66,51,59,53,49,97,69,33,30.17,30.02,13,3,17,0.01
2013-9-11,81,66,52,53,46,40,91,56,24,30.41,30.18,9,2,21,0.00
2013-9-12,80,63,44,51,46,41,87,58,29,30.45,30.19,10,4,15,0.00
2013-9-13,88,69,51,61,55,48,89,63,31,30.19,29.80,14,4,21,0.00
2013-9-14,77,68,55,60,52,40,86,60,32,30.24,29.80,23,7,30,0.00
2013-9-15,75,59,44,53,46,40,93,64,36,30.37,30.21,16,6,20,0.00
2013-9-16,84,67,52,56,52,43,86,60,37,30.21,29.78,14,6,21,0.00
2013-9-17,84,69,51,57,51,44,93,58,25,29.82,29.66,10,4,19,0.00
2013-9-18,75,64,55,59,54,42,92,73,51,29.90,29.64,22,6,29,0.00
2013-9-19,62,52,40,48,42,36,91,72,47,30.25,29.90,21,8,27,0.01
2013-9-20,75,52,33,47,37,31,93,64,25,30.26,29.98,8,3,13,0.00
2013-9-21,88,62,41,46,41,32,83,51,14,29.98,29.61,11,6,15,0.00
2013-9-22,79,64,47,51,44,35,88,53,21,29.65,29.55,19,5,24,0.00
2013-9-23,74,61,48,47,41,32,76,51,24,29.95,29.63,16,4,24,0.00
2013-9-24,75,58,37,43,35,31,80,47,21,30.06,29.73,14,3,19,0.00
2013-9-25,59,52,46,50,47,43,93,84,63,29.84,29.66,14,4,18,0.10
2013-9-26,51,46,39,47,40,-100,95,84,74,30.11,29.80,16,-15,24,0.02
2013-9-27,59,46,38,39,36,33,93,71,39,30.14,29.97,7,3,15,0.00
2013-9-28,67,52,38,41,37,33,89,59,30,29.97,29.81,24,5,26,0.00
2013-9-29,76,61,47,41,37,29,72,43,24,29.80,29.56,20,7,27,0.00
2013-9-30,68,54,38,47,35,27,83,54,27,29.82,29.55,20,7,26,0.01
2013-10-1,67,55,42,33,30,25,63,40,22,30.06,29.82,18,7,27,0.00
2013-10-2,61,49,38,32,28,24,71,47,25,30.21,30.05,16,4,22,0.00
2013-10-3,49,44,37,37,33,28,79,66,48,30.56,30.21,15,8,21,0.00
2013-10-4,48,39,31,30,23,-100,75,58,40,30.68,30.55,15,-17,18,0.00
2013-10-5,61,40,19,30,25,15,88,59,28,30.56,30.28,7,1,14,0.00
2013-10-6,72,51,32,39,34,26,82,56,29,30.29,30.09,14,3,20,0.00
2013-10-7,79,54,35,41,34,24,91,54,13,30.09,29.72,8,2,11,0.00
2013-10-8,65,51,36,35,27,-100,70,45,25,30.05,29.76,15,-17,21,0.00
2013-10-9,63,46,28,41,33,23,88,63,38,30.29,30.06,9,3,11,0.00
2013-10-10,66,54,41,44,40,34,92,63,37,30.10,29.81,14,4,21,0.00
2013-10-11,56,48,39,41,28,-100,85,53,28,30.11,29.86,25,-20,34,0.01
2013-10-12,55,41,28,30,23,-100,86,55,26,30.45,30.12,12,-6,19,0.00
2013-10-13,57,42,27,30,20,-100,81,49,29,30.51,30.41,17,-36,22,0.00
2013-10-14,53,44,36,27,19,-100,60,42,29,30.55,30.43,19,-35,26,0.00
2013-10-15,56,39,22,29,22,-100,86,58,32,30.56,30.24,11,-18,14,0.00
2013-10-16,56,36,22,39,27,-100,91,73,43,30.36,30.15,16,-17,22,0.06
2013-10-17,48,34,24,36,25,-100,95,79,46,30.40,30.29,14,-38,22,0.03
2013-10-18,55,41,33,38,27,-100,95,69,40,30.34,30.05,16,-47,20,0.00
2013-10-19,60,45,34,36,28,-100,89,60,39,30.05,29.85,22,-42,28,0.00
2013-10-20,43,40,37,35,33,29,90,78,65,30.23,30.19,10,3,12,0.00
2013-10-21,57,43,36,47,31,-100,94,77,54,30.19,30.08,22,-57,32,0.04
2013-10-22,52,42,38,43,30,-100,92,76,69,30.30,30.18,5,-72,8,0.01
2013-10-23,51,38,27,41,28,-100,96,76,50,30.54,30.21,11,-49,18,0.00
2013-10-24,51,36,22,35,29,20,93,78,53,30.57,30.29,11,3,13,0.00
2013-10-25,63,45,31,41,27,-100,95,58,28,30.46,30.19,20,-27,25,0.00
2013-10-26,63,38,20,32,20,-100,85,57,31,30.51,30.09,7,-30,12,0.00
2013-10-27,46,34,24,33,22,-100,91,69,56,30.64,30.06,30,-31,35,0.00
2013-10-28,30,24,24,24,9,-100,91,70,64,30.73,30.61,20,-85,25,0.00
2013-10-29,34,28,26,30,16,-100,92,79,82,30.60,30.20,11,-79,15,0.00
2013-10-30,46,30,22,34,18,-100,93,76,57,30.20,29.92,8,-72,12,0.00
2013-10-31,54,38,28,37,21,-100,93,67,45,29.95,29.80,20,-77,24,0.00
2013-11-1,56,38,24,35,17,-100,90,56,30,30.26,29.95,27,-77,29,0.00
2013-11-2,54,35,18,33,20,-100,87,65,44,30.27,29.75,15,-47,18,0.00
2013-11-3,49,37,33,37,20,-100,90,62,48,30.00,29.71,21,-61,30,0.00
2013-11-4,34,25,14,23,7,-100,85,60,44,30.40,30.00,25,-63,32,0.00
2013-11-5,43,23,7,24,6,-100,88,64,37,30.45,30.30,10,-73,13,0.00
2013-11-6,42,23,12,21,5,-100,86,59,30,30.56,30.29,12,-71,14,0.00
2013-11-7,49,31,11,31,14,-100,90,61,32,30.57,29.89,16,-59,19,0.00
2013-11-8,50,36,33,41,19,-100,94,71,57,30.20,29.78,24,-106,30,0.11
2013-11-9,40,29,26,31,12,-100,90,69,55,30.48,30.21,13,-101,18,0.00
2013-11-10,30,21,16,26,4,-100,90,70,56,30.78,30.36,15,-121,18,0.00
2013-11-11,27,15,8,18,1,-100,90,73,67,30.94,30.79,9,-92,11,0.00
2013-11-12,47,27,10,36,14,-100,93,74,61,30.86,30.32,7,-83,12,0.00
2013-11-13,56,38,28,39,20,-100,94,66,51,30.32,30.13,13,-102,18,0.00
2013-11-14,50,32,24,34,16,-100,91,70,51,30.17,29.88,15,-101,18,0.00
2013-11-15,51,36,22,34,17,-100,91,62,37,29.88,29.51,12,-70,18,0.00
2013-11-16,43,33,33,35,17,-100,93,73,68,29.64,29.43,6,-124,8,0.00
2013-11-17,34,24,17,33,7,-100,94,72,68,30.22,29.64,12,-122,18,0.00
2013-11-18,52,29,15,31,12,-100,91,66,40,30.22,29.97,10,-92,11,0.00
2013-11-19,60,31,17,33,10,-100,90,61,33,30.09,29.68,13,-111,20,0.00
2013-11-20,18,7,-13,10,-14,-100,87,66,71,30.91,30.10,16,-152,19,0.00
2013-11-21,21,5,-18,12,-12,-100,84,67,67,31.01,30.81,7,-113,11,0.00
2013-11-22,18,8,0,14,-6,-100,89,72,74,31.13,30.80,16,-100,16,0.00
2013-11-23,26,12,-1,17,-5,-100,85,69,69,31.12,30.44,14,-111,16,0.00
2013-11-24,37,20,7,27,7,-100,92,74,69,30.45,30.27,8,-92,13,0.00
2013-11-25,35,22,17,25,6,-100,91,70,61,30.74,30.46,15,-112,18,0.00
2013-11-26,31,18,4,20,2,-100,89,72,61,30.79,30.31,11,-101,16,0.00
2013-11-27,38,23,15,29,7,-100,92,72,68,30.56,30.24,13,-113,16,0.00
2013-11-28,28,19,14,25,2,-100,92,78,87,30.57,30.30,14,-140,18,0.00
2013-11-29,40,23,12,30,9,-100,92,75,64,30.37,30.26,5,-103,9,0.00
2013-11-30,41,31,30,34,15,-100,93,75,72,30.40,30.25,9,-124,10,0.00
2013-12-1,40,31,28,37,19,-100,96,83,86,30.25,29.77,10,-102,13,0.01
2013-12-2,36,23,20,35,7,-100,97,78,85,30.16,29.73,20,-138,27,0.00
2013-12-3,20,10,8,16,-11,-100,87,68,80,30.56,30.14,18,-170,26,0.00
2013-12-4,8,1,-13,3,-17,-100,83,68,70,30.70,30.55,14,-133,19,0.00
2013-12-5,-5,-12,-20,-11,-28,-100,81,68,72,30.99,30.70,10,-121,14,0.00
2013-12-6,-10,-16,-28,-17,-35,-100,80,66,68,31.18,30.99,12,-133,14,0.00
2013-12-7,-11,-19,-30,-17,-37,-100,80,67,75,31.17,30.73,7,-134,9,0.00
2013-12-8,-1,-10,-26,-7,-28,-100,83,68,73,30.72,30.52,14,-133,17,0.00
2013-12-9,23,3,-20,18,-12,-100,91,72,74,30.63,30.14,28,-110,35,0.00
2013-12-10,20,4,-20,16,-15,-100,90,67,66,30.82,30.21,15,-143,20,0.00
2013-12-11,14,3,-18,10,-14,-100,85,69,68,30.82,30.53,8,-125,10,0.00
2013-12-12,32,17,10,24,-1,-100,90,72,73,30.51,30.25,15,-135,23,0.01
2013-12-13,12,5,-1,9,-14,-100,90,71,79,30.61,30.27,13,-153,19,0.00
2013-12-14,14,8,2,10,-10,-100,87,72,82,30.61,30.27,9,-145,11,0.00
2013-12-15,41,23,10,32,4,-100,90,69,68,30.28,30.08,11,-143,22,0.00
2013-12-16,36,27,24,32,10,-100,96,76,75,30.47,30.21,13,-143,16,0.02
2013-12-17,28,17,8,24,-4,-100,91,72,84,30.50,30.00,9,-170,13,0.00
2013-12-18,34,20,4,30,13,-100,85,79,78,30.41,29.95,14,-9,19,0.00
2013-12-19,5,-4,-15,0,-9,-20,84,80,74,30.63,30.42,8,2,17,0.00
2013-12-20,6,-3,-14,1,-20,-100,86,71,78,30.44,30.15,12,-135,14,0.00
2013-12-21,4,0,-16,0,-19,-100,86,70,80,30.55,30.15,16,-142,22,0.00
2013-12-22,3,-9,-26,-2,-27,-100,84,68,76,30.98,30.55,8,-145,10,0.00
2013-12-23,22,-5,-28,20,-21,-100,93,73,76,30.96,30.25,14,-122,18,0.00
2013-12-24,34,22,12,30,5,-100,92,74,80,30.48,30.25,12,-141,17,0.00
2013-12-25,35,24,23,26,6,-100,90,71,67,30.55,30.21,11,-133,15,0.02
2013-12-26,41,25,20,29,8,-100,92,72,61,30.36,30.13,10,-123,14,0.00
2013-12-27,42,28,26,33,13,-100,94,75,69,30.24,29.95,6,-116,7,0.00
2013-12-28,40,10,-2,34,-11,-100,89,64,67,30.86,29.93,23,-151,40,0.01
2013-12-29,17,8,-6,13,-9,-100,88,73,80,30.85,30.22,9,-132,13,0.00
2013-12-30,21,10,6,17,-9,-100,88,68,71,30.60,30.27,17,-142,23,0.00
2013-12-31,6,2,-1,2,-16,-100,85,71,81,30.56,30.38,19,-137,25,0.00
2014-1-1,10,6,1,7,-12,-100,86,71,78,30.81,30.56,8,-134,12,0.00
2014-1-2,18,10,5,17,-8,-100,94,75,86,30.67,29.92,10,-155,16,0.00